Location: eljas
(40.1958°N, 6.8661°W)
Time: 01:42:05
(UTC+01:00)

Daily predictions for brighter satellites

Satellite Brightness Start Highest point End
(mag) Time Altitude Azimuth Time Altitude Azimuth Time Altitude Azimuth
CZ-3 R/B 4.4 03:16:49 10° W 04:24:33 50° S 04:34:04 10° SE
Cosmos 2227 Rocket 4.4 05:13:07 20° ENE 05:13:07 20° ENE 05:15:12 10° NE
Cosmos 2333 Rocket 3.7 05:44:00 28° SE 05:44:00 28° SE 05:46:38 10° SSE
Cosmos 2219 Rocket 4.1 06:05:47 18° S 06:05:47 18° S 06:07:13 10° S
USA 229 DEB 4.1 06:11:07 39° NNW 06:13:53 64° NE 06:21:03 10° SE
USA 229 4.1 06:11:11 38° NNW 06:13:59 63° NE 06:21:09 10° SE
NOAA 6 4.2 06:20:32 10° NNE 06:25:44 74° ESE 06:30:55 10° S
Tsikada Rocket 3.9 06:19:31 10° N 06:25:57 89° ENE 06:32:17 10° S
COSMO-SKYMED 1 3.1 06:24:09 10° SSE 06:28:23 56° ENE 06:29:31 42° NNE
Cosmos 2237 Rocket 2.3 06:30:29 55° SW 06:30:29 55° SW 06:35:17 10° S
Meteor 2-17 Rocket 4.3 06:25:12 10° SSW 06:31:12 67° W 06:37:14 10° N
SL-16 R/B 2.6 06:29:56 28° N 06:32:53 63° ENE 06:38:29 10° SE
Cosmos 2297 Rocket 2.1 06:41:13 57° W 06:41:41 59° WNW 06:47:18 10° NNE
Cosmos 2151 4.3 06:40:28 10° N 06:44:27 39° ENE 06:48:25 10° SSE
Cosmos 1500 Rocket 3.8 06:43:02 19° N 06:46:13 68° E 06:50:38 10° SSE
Cosmos 783 Rocket 4.4 06:50:29 38° NNW 06:52:28 71° WSW 06:57:40 10° S
Cosmos 1725 Rocket 4.1 06:46:46 10° SSW 06:52:47 50° WNW 06:58:54 10° N
SL-24 R/B 4.4 06:48:49 10° N 06:53:32 78° WNW 06:59:07 10° SSW
Cosmos 2227 Rocket 2.9 06:55:00 34° NW 06:55:00 34° NW 06:59:23 10° N
Meteor 1-16 Rocket 4.5 06:50:01 10° S 06:55:25 65° E 07:00:43 10° NNE
SKYMED 3 4.4 06:54:07 10° S 06:58:25 66° WSW 06:59:56 38° NNW
Cosmos 540 Rocket 3.7 06:58:52 43° W 06:59:22 45° WSW 07:04:12 10° S
USA 234 3.9 06:54:16 10° ESE 07:00:33 50° NNE 07:05:21 18° NW
Cosmos 220 Rocket 3.9 06:58:00 10° SSW 07:02:25 78° WNW 07:06:51 10° NNE
IDEFIX/ARIANE 42P 4.5 06:57:58 10° NNE 07:02:39 32° E 07:07:19 10° SSE
Cosmos 1340 Rocket 3.8 07:03:21 10° N 07:07:10 47° ENE 07:10:58 10° SSE
OAO 2 Rocket 3.9 07:07:07 28° WSW 07:09:17 46° S 07:14:00 10° ESE
NOSS 3-1 (C) 4.4 07:02:32 13° NNW 07:09:30 65° NE 07:17:45 10° SE
BREEZE-M DEB (TANK) 4.3 07:11:50 18° N 07:11:50 18° N 07:13:37 10° NE
Cosmos 304 Rocket 3.7 07:09:24 22° NNW 07:12:28 69° WSW 07:17:12 10° S
Aureole 2 Rocket 3.4 07:15:31 35° WNW 07:16:16 39° WSW 07:20:09 10° S
SKYMED 2 3.9 07:12:26 10° S 07:16:31 40° W 07:18:11 28° NW
Cosmos 1271 Rocket 2.7 07:13:30 10° S 07:17:21 81° E 07:21:10 10° NNE
Cosmos 1538 Rocket 4.0 07:15:11 10° NNW 07:20:36 88° WSW 07:25:58 10° SSE
SL-14 R/B 3.2 07:16:37 10° N 07:20:41 76° W 07:24:43 10° S
Meteor 1-28 Rocket 3.3 07:19:28 10° S 07:23:07 50° W 07:25:35 19° NNW
YAOGAN 1 4.4 07:19:57 10° NNE 07:23:54 34° E 07:27:50 10° SSE
Cosmos 2333 Rocket 4.0 07:26:05 13° WSW 07:26:05 13° WSW 07:27:35 10° SW
Meteor 1-4 Rocket 3.2 07:25:51 10° SW 07:29:14 34° WNW 07:32:41 10° N
ISS -3.3 07:27:58 30° NW 07:29:25 78° NE 07:32:40 10° ESE
CZ-4 R/B 1.9 07:28:07 10° NNE 07:32:08 63° ESE 07:36:12 10° S
Ariane Rocket 3.1 07:28:41 10° N 07:33:40 54° WNW 07:38:37 10° SSW
CSL-04 Debris 4.1 07:28:58 10° N 07:34:29 78° WNW 07:39:55 10° SSW
Cosmos 1603 3.9 07:31:03 10° NNW 07:36:42 76° ENE 07:42:20 10° SSE
Cosmos 1626 2.7 07:39:53 10° N 07:43:36 59° E 07:47:16 10° SSE
SL-8 R/B 4.4 07:40:16 16° NW 07:43:52 44° NNE 07:48:28 10° E
Cosmos 2221 2.5 07:40:58 10° SSW 07:45:17 64° W 07:49:36 10° N
Cosmos 2263 Rocket 4.2 07:40:19 10° SSE 07:45:19 33° ESE 07:50:22 10° NE
ERBS 2.5 07:43:45 15° NW 07:46:31 67° NE 07:49:54 10° SE
PSLV R/B 3.7 07:52:28 10° WSW 07:55:49 60° SSE 07:59:06 10° E
AQUARIUS 4.1 07:55:25 10° N 07:59:56 80° WNW 08:04:26 10° SSW
Cosmos 2034 Rocket 4.0 07:54:21 10° SSW 08:00:30 72° W 08:06:45 10° N
PAYLOAD A 4.2 07:56:31 10° N 08:01:23 48° WNW 08:06:03 10° SW
Cosmos 2227 4.3 07:58:14 10° SW 08:03:42 53° WNW 08:09:12 10° NNE
Cosmos 1908 3.5 08:00:08 10° S 08:03:56 72° E 08:07:46 10° NNE
Cosmos 2228 Rocket 3.9 08:00:08 10° S 08:04:29 56° E 08:08:50 10° NNE
MOS 1 4.4 07:58:59 10° NNE 08:04:44 86° ESE 08:10:26 10° SSW
COSMO-SKYMED 1 4.4 08:03:07 10° WSW 08:04:53 12° W 08:06:38 10° WNW
Cosmos 2058 3.7 08:01:27 10° NNW 08:05:04 30° W 08:08:40 10° SSW
CSL-04 Rocket 4.2 08:00:38 10° N 08:05:24 35° WNW 08:10:08 10° SW
Coronas F rocket 1.6 08:03:22 10° N 08:05:44 57° E 08:08:06 10° SSE
CZ-2C R/B 2.2 08:01:19 10° N 08:05:52 62° WNW 08:10:21 10° SSW
Cosmos 389 Rocket 2.9 08:02:55 10° S 08:06:34 72° E 08:10:14 10° NNE
Cosmos 292 Rocket 3.8 08:03:11 10° NNW 08:07:59 83° WSW 08:12:46 10° SSE
Cosmos 2112 Rocket 4.2 08:06:22 10° NNW 08:11:43 79° ENE 08:17:04 10° SSE
Nadezhda 4 Rocket 4.1 08:05:49 10° N 08:12:11 86° W 08:18:28 10° S
Cosmos 1805 Rocket 4.0 08:11:51 10° NNW 08:16:01 41° W 08:20:08 10° SSW
SL-16 R/B 3.7 08:12:49 10° WNW 08:16:24 17° W 08:19:59 10° SW
SMAP 3.2 08:13:43 10° N 08:18:15 53° WNW 08:22:46 10° SSW
NOSS 3-1 (A) 4.2 08:11:01 10° NW 08:18:41 69° WSW 08:27:02 10° SSE
